Regional Weather Roundup
Issued by NWS

Home | Current Version | Previous Version | Graphics & Text | Print | Product List | Glossary On
Versions: 1 2 3 4 5 6 7 8 9 10 11 12 13 14 15 16 17 18 19 20 21 22 23 24 25 26 27 28 29 30 31 32 33 34 35 36 37 38 39 40 41 42 43 44 45 46 47 48 49 50
000
ASUS43 KMKX 010121
RWRWI

WISCONSIN REGIONAL WEATHER ROUNDUP
NATIONAL WEATHER SERVICE MILWAUKEE/SULLIVAN WI
800 PM CDT FRI JUL 31 2015

NOTE: "FAIR" INDICATES FEW OR NO CLOUDS BELOW 12,000 FEET WITH NO
SIGNIFICANT WEATHER AND/OR OBSTRUCTIONS TO VISIBILITY.

WIZ001-002-006>008-014>016-023>028-010200-
NORTHWEST WISCONSIN

CITY           SKY/WX    TMP DP  RH WIND       PRES   REMARKS
SUPERIOR ARPT  CLEAR     73  52  47 W6        29.91S
ASHLAND        MOCLDY    68  60  75 NW5       29.91F
HAYWARD        CLEAR     75  49  39 MISG      29.94S
SIREN          CLEAR     74  52  46 W5        29.95F
CUMBERLAND     CLEAR     70  50  49 W6        29.96S
RICE LAKE      CLEAR     71  51  50 W5        29.97S
CHETEK         CLEAR     73  52  47 W3        29.95S
LADYSMITH      CLEAR     73  53  50 W7        29.96S
EAU CLAIRE     CLEAR     74  52  46 W7        29.95S
MENOMONIE      CLEAR     75  50  41 W5        29.97S
NEW RICHMOND   CLEAR     72  52  48 W3        29.98S
OSCEOLA        PTCLDY    73  52  47 W5        29.99S
$$

WIZ003>005-009-010-017-018-010200-
NORTH CENTRAL WISCONSIN

CITY           SKY/WX    TMP DP  RH WIND       PRES   REMARKS
MANITOWISH WTR PTCLDY    63  58  85 CALM      29.93S
ARBOR VITAE    PTCLDY    63  58  83 CALM      29.93S
WOODRUFF       PTCLDY    63  58  83 CALM      29.93S
RHINELANDER    PTCLDY    63  57  81 W5        29.95F
EAGLE RIVER    PTCLDY    63  50  63 W6        29.92F
LAND O LAKES   CLEAR     65  51  61 CALM      29.93S
PHILLIPS       MOCLDY    64  60  86 CALM      29.93F
TOMAHAWK       MOCLDY    61  56  84 CALM      29.95F
MEDFORD        PTCLDY    69  53  56 W6        29.95S
MERRILL        NOT AVBL
$$

WIZ029-030-035-036-043>047-010200-
CENTRAL WISCONSIN

CITY           SKY/WX    TMP DP  RH WIND       PRES   REMARKS
WAUSAU         CLOUDY    67  55  65 VRB7      29.94R
MOSINEE        PTCLDY    68  54  60 NE7       29.96R
MARSHFIELD     CLEAR     72  50  45 W7        29.95S
STEVENS POINT  CLEAR     72  52  48 W5        29.95S
WAUPACA        MOCLDY    78  51  38 W7        29.93S
WAUTOMA        CLEAR     76  49  38 NW8       29.95R
WISC RAPIDS    CLEAR     74  50  42 NW7       29.96S
CAMP DOUGLAS   CLEAR     70  56  61 W7        29.96S
$$

WIZ011>013-019>022-031-037>040-048>050-010200-
NORTHEAST WISCONSIN

CITY           SKY/WX    TMP DP  RH WIND       PRES   REMARKS
ANTIGO         PTCLDY    61  55  78 W6        29.95F
SHAWANO        CLOUDY    71  53  54 W7        29.93R
OCONTO         CLOUDY    75  51  42 W12G18    29.88R
STURGEON BAY   PTCLDY    72  55  56 NW7       29.90S
GREEN BAY      CLOUDY    73  52  47 NW15      29.91R
MANITOWOC      CLEAR     76  50  40 MISG      29.89R
APPLETON       MOCLDY    73  50  43 W7        29.92R
CLINTONVILLE   CLOUDY    70  52  52 NW12      29.92F
OSHKOSH        CLEAR     75  52  44 NW10      29.92R
$$

WIZ032>034-041-042-053>061-010200-
SOUTHWEST WISCONSIN

CITY           SKY/WX    TMP DP  RH WIND       PRES   REMARKS
LA CROSSE      CLEAR     77  55  46 W5        29.97R
SPARTA         CLEAR     74  48  39 W3        29.98S
VIROQUA        CLEAR     70  55  57 W3        30.00S
BOSCOBEL       CLEAR     77  55  46 CALM      29.98R
PRAIRIE DU CHI CLEAR     77  51  40 W5        29.99R
PLATTEVILLE    CLEAR     73  53  48 W3        30.00S
$$

WIZ056-057-062-063-064-067-068-010200-
SOUTH CENTRAL WISCONSIN

CITY           SKY/WX    TMP DP  RH WIND       PRES   REMARKS
REEDSBURG      CLEAR     75  50  41 W6        29.97R
BARABOO/DELLS  CLEAR     74  46  36 W6        29.97R
LONE ROCK      CLEAR     75  51  43 NW5       29.98R
MINERAL POINT  CLEAR     73  52  46 W5        30.00S
MADISON        PTCLDY    76  49  38 W5        29.96R
MIDDLETON      CLEAR     73  48  41 W8        29.98R
WATERTOWN      CLEAR     73  54  51 W3        29.94S
MONROE         CLEAR     73  52  46 W8        29.98S
JANESVILLE     CLEAR     75  48  38 NW12      29.96R
$$

WIZ051-052-058>065-066-070>072-010200-
SOUTHEAST WISCONSIN

CITY           SKY/WX    TMP DP  RH WIND       PRES   REMARKS
MILWAUKEE      PTCLDY    80  47  31 NW14      29.92S
WAUKESHA       PTCLDY    73  50  43 W8        29.95R
MILWAUKEE/TIMM CLEAR     75  45  33 W8        29.93R
RACINE         CLEAR     77  50  38 W6        29.94S
BURLINGTON     CLEAR     71  48  44 W6        29.95R
KENOSHA        CLEAR     73  52  47 W7        29.94R
FOND DU LAC    CLEAR     74  54  49 NW8       29.93R
SHEBOYGAN      CLEAR     75  53  46 W7        29.90S
WEST BEND      CLEAR     73  45  35 W5        29.92S
JUNEAU         CLEAR     73  52  46 W5        29.95R
$$

LSZ147-162-010200-
LAKE SUPERIOR

STATION/POSITION TIME  TEMP    WIND        PRES    WAVE
                       AIR SEA DIR/SP/G            HT/PER
                 (UTC) (F)     (DEG/KT/KT) (MB)    (FT/S)
W MID LAKE BUOY  0050   59 53  250/ 12/ 14 1010.8F   2/ 3
DEVILS ISLAND    0100   62     230/  6/  7 1012.0F
PORT WING        0000   72     180/  4/  5 1012.5
SAXON HARBOR     0040   68                 1011.9F
$$

LMZ867-665-643>646-010200-
LAKE MICHIGAN

STATION/POSITION TIME  TEMP    WIND        PRES    WAVE
                       AIR SEA DIR/SP/G            HT/PER
                 (UTC) (F)     (DEG/KT/KT) (MB)    (FT/S)
CHAMBERS ISLAND  0000   75     290/  1/  7 1011.2R
S GREEN BAY BUOY 0000   72 72  310/ 10/ 14 1012.7R
N MID LAKE BUOY  0050   70 69  290/  8/ 10 1010.3R   1/ 3
NORTHPORT PIER   0000   74     300/  7/ 15 1010.8S
SISTER BAY       0044   74     330/ 13/ 15   N/A
ALGOMA LAKESHORE 0012             CALM       N/A
KEWAUNEE LAKESHO 0000   78     300/  6/ 10 1011.0R
SHEBOYGAN LAKESH 0100   77     290/ 10/ 12 1012.4R
PORT WASHINGTON  0040   80     280/  6/  9 1013.2R
ATWATER BUOY     0100   75 68  300/ 10/ 12 1014.4R
MILWAUKEE LAKESH 0100   79     300/  8/ 12   N/A
KENOSHA   LAKESH 0100   78     290/  8/ 12 1012.9R
$$

TC  - TEMPERATURE IN CELSIUS
VSB - VISIBILITY IN STATUTE MILES
WCI - WIND CHILL INDEX
HX  - HEAT INDEX




USA.gov is the U.S. government's official web portal to all federal, state and local government web resources and services.